Wetbulb
66.24 66.06 65.80 65.35 65.01 64.48 63.86 63.34 62.89 62.53 62.66 62.40 62.64 62.74 62.42 61.80 60.86 60.35 60.65 60.85 60.52 61.16 61.81 61.71 62.18 62.89 56.56 49.00 51.00 54.93 65.43 62.69 55.44 55.52 53.88 52.33 49.25 47.93 44.93 44.87 47.03 45.02 47.76 49.56 49.65 48.66 47.41
66.01 66.51 65.76 65.57 65.74 65.58 64.95 64.39 63.72 63.23 62.69 62.58 62.93 62.80 62.44 61.50 60.83 60.62 60.82 60.91 60.65 61.08 61.23 61.25 61.94 62.21 54.00 44.81 54.72 55.43 55.80 54.83 55.53 54.03 52.71 50.70 48.38 49.31 46.30 45.20 43.74 45.90 46.87 46.56 47.27 46.92 46.45
63.87 65.54 65.96 65.83 65.94 66.06 65.81 64.90 64.23 63.77 63.50 63.09 62.94 62.74 62.34 61.28 60.50 60.61 60.89 60.89 60.91 60.86 60.87 61.00 62.11 59.57 50.70 48.42 53.61 53.65 55.66 53.75 54.29 54.64 52.81 51.72 50.76 48.13 48.19 45.00 48.00 46.31 41.70 42.99 43.83 45.08 44.81
63.14 63.33 63.36 63.81 64.96 65.80 65.76 65.10 64.43 63.93 63.76 63.71 63.39 62.93 61.95 61.10 60.30 60.38 60.66 60.54 60.10 60.19 60.86 61.76 61.74 54.25 46.94 54.49 52.47 54.11 53.89 53.57 54.64 53.79 53.84 52.46 52.26 50.49 47.61 47.49 45.56 41.83 40.37 37.31 44.05 45.54 45.66
61.64 62.35 62.65 62.92 62.76 63.43 64.62 64.65 64.68 64.16 63.85 63.72 63.34 62.63 61.73 61.12 60.38 60.16 60.15 60.16 60.38 61.23 61.89 61.90 54.04 49.32 46.10 56.89 51.01 53.01 52.82 52.75 53.27 52.86 52.85 54.33 51.63 47.86 46.59 41.23 39.74 39.72 35.36 37.59 41.98 46.16 44.67
60.00 60.70 61.22 61.39 62.33 62.74 62.64 62.95 63.92 63.43 63.02 63.15 62.83 61.92 61.16 60.68 60.42 59.85 59.60 59.81 60.25 59.65 58.70 57.97 56.93 45.02 48.62 48.03 51.67 52.49 51.22 53.88 51.66 51.02 49.81 49.44 46.09 42.18 41.69 38.73 33.94 34.62 35.55 36.88 38.06 42.40 42.91
58.23 58.82 59.72 60.21 61.06 61.01 61.64 61.93 61.55 62.54 62.38 62.32 62.20 61.66 60.83 60.56 60.28 59.51 57.07 53.09 49.83 48.67 51.01 47.89 47.85 46.53 48.74 50.08 51.52 49.21 51.99 51.34 50.59 46.52 40.22 45.50 40.05 36.96 41.00 41.89 40.88 38.96 37.11 35.97 38.42 42.87 40.05
57.61 57.70 58.00 59.07 59.41 59.92 60.07 60.87 61.15 60.88 60.81 61.93 61.96 61.54 60.76 60.30 59.45 58.26 54.94 50.64 49.80 50.49 45.60 52.93 52.46 51.25 52.08 50.08 46.84 48.42 51.67 45.80 45.08 40.76 42.11 40.37 37.96 42.67 45.03 44.23 42.11 39.95 37.30 36.89 40.03 42.77 39.25
56.85 57.05 57.02 57.73 58.35 58.62 58.85 59.36 60.16 60.50 60.28 60.06 60.87 61.06 60.59 59.89 58.68 54.89 52.22 51.95 54.92 53.43 44.51 49.59 51.94 50.46 49.55 49.77 46.45 46.45 49.57 46.44 42.99 40.33 40.79 37.60 41.80 46.61 45.09 41.92 41.28 38.96 36.83 36.35 36.71 40.48 40.43
56.89 56.76 56.81 56.91 57.07 57.20 57.44 57.94 58.83 59.27 59.95 59.51 59.00 60.40 60.45 59.01 54.85 54.43 51.92 55.77 55.37 53.34 38.35 42.88 47.79 49.69 49.76 49.72 45.61 50.30 50.33 47.42 43.33 40.76 41.35 39.82 43.96 44.06 41.80 41.25 41.35 36.39 41.10 41.19 40.52 36.50 32.73
56.67 56.37 56.36 56.92 56.72 56.75 57.39 57.88 58.13 58.57 58.39 59.05 58.51 58.83 59.86 58.16 52.58 51.79 53.13 54.71 54.84 49.43 28.19 45.09 46.18 51.22 48.94 46.54 45.88 46.86 49.72 46.83 41.65 41.94 40.55 39.10 41.20 40.39 40.37 41.35 42.70 39.88 42.50 40.16 39.57 35.02 34.42
55.23 56.34 56.25 56.31 56.81 56.77 57.07 57.44 57.74 57.93 57.99 58.11 58.68 57.74 59.08 57.17 53.78 55.07 55.54 53.96 51.28 37.08 30.12 41.87 45.59 44.01 43.74 45.33 45.08 47.09 45.93 47.47 46.72 43.13 41.81 40.72 43.91 42.87 42.32 42.97 42.48 43.40 39.64 39.01 37.71 35.54 30.82
55.33 55.53 56.02 56.21 56.10 56.77 56.82 56.96 57.20 57.09 57.72 57.76 57.66 57.70 57.88 59.62 52.83 57.42 55.02 49.59 36.64 31.36 43.39 40.47 41.48 43.79 41.78 41.57 42.41 42.97 41.32 38.91 37.63 33.75 33.14 38.31 40.03 41.59 43.76 39.51 41.08 39.39 34.34 29.85 31.71 30.43 29.70
55.66 55.42 56.06 56.29 56.38 56.27 56.40 56.45 56.58 56.47 57.20 57.05 56.62 56.94 57.28 59.08 58.28 57.57 50.83 42.03 30.92 40.60 39.57 44.85 43.94 42.90 39.61 42.12 41.45 41.76 38.96 36.37 40.05 37.38 34.76 33.60 33.11 39.78 41.95 39.73 37.98 36.44 35.28 31.04 28.82 30.56 33.41
54.92 55.32 55.22 55.54 55.61 56.23 55.96 55.57 56.26 56.41 56.52 55.89 55.57 53.36 54.74 55.92 58.40 55.34 44.11 34.13 34.42 39.73 44.09 42.83 42.40 38.15 37.63 42.00 41.02 39.18 37.54 37.27 40.24 40.16 35.32 33.85 34.85 40.04 41.33 40.42 40.46 36.89 34.07 37.95 34.73 33.15 31.48
53.98 54.59 54.90 55.19 55.28 55.51 55.66 55.12 55.30 55.88 55.95 55.16 52.69 51.26 50.61 56.21 57.93 53.15 39.82 37.77 39.12 44.63 45.09 44.21 38.12 40.11 36.64 38.32 38.28 37.24 37.42 41.23 41.16 42.72 41.75 37.72 32.86 38.28 39.44 40.16 39.44 37.53 39.26 33.04 32.49 26.78 27.39
52.91 53.69 54.35 54.80 55.09 54.83 54.97 54.76 54.36 55.27 55.32 54.66 49.24 45.27 49.35 49.95 54.67 49.53 37.76 36.10 41.57 46.23 46.08 42.41 40.55 39.24 39.37 38.87 38.64 36.90 38.52 42.30 43.35 42.59 42.13 38.26 36.46 33.20 36.74 35.33 35.21 35.13 34.40 35.60 34.53 33.72 30.03
52.34 52.64 53.30 54.12 54.60 54.42 54.63 54.49 54.71 54.89 53.97 52.25 45.08 39.43 47.56 52.17 46.74 46.80 42.89 43.67 45.02 44.24 45.54 44.28 43.39 42.49 39.97 40.52 38.04 37.91 38.69 41.06 43.43 44.08 39.54 40.43 36.07 31.09 34.85 38.23 39.89 37.06 36.22 35.97 30.83 31.05 32.37
51.87 52.04 52.45 53.25 53.74 54.27 54.10 54.47 54.41 53.88 52.91 46.33 40.79 41.96 47.35 52.11 41.41 41.13 44.55 46.26 46.85 45.72 45.40 42.54 42.25 44.18 43.41 39.85 37.68 39.54 41.17 44.28 44.16 42.80 40.58 40.50 34.64 29.87 32.46 35.05 36.38 35.74 37.25 37.88 36.30 34.54 31.47
51.60 51.56 51.64 52.40 53.35 53.49 53.70 53.74 53.73 53.44 53.09 46.74 39.48 35.70 43.64 42.40 44.56 40.55 40.56 43.11 43.23 49.45 46.96 47.77 44.54 44.59 41.62 40.06 40.71 39.72 39.92 43.69 43.73 43.69 48.27 44.85 35.88 33.20 30.77 34.15 36.23 33.05 36.40 37.30 36.58 29.56 32.54
51.22 51.10 51.57 51.62 52.87 52.89 53.07 53.24 53.63 53.22 52.88 45.65 39.23 34.71 39.38 36.69 40.19 40.26 42.61 42.72 41.82 42.84 47.95 46.68 41.94 44.23 41.24 37.21 38.96 38.33 40.52 40.83 42.67 46.32 41.38 40.39 33.89 34.90 36.83 38.13 38.25 38.39 37.61 36.81 35.68 37.99 33.31
50.62 50.99 51.21 51.42 51.90 52.60 52.66 53.05 53.25 52.81 51.99 43.44 35.82 35.02 38.29 36.32 40.19 40.09 39.88 38.62 39.40 42.22 44.17 44.38 44.03 44.71 42.18 39.07 40.15 38.17 40.53 38.43 40.16 38.91 38.79 38.77 33.98 35.93 36.15 38.77 38.36 37.20 39.19 38.97 38.12 39.05 38.74
49.92 50.30 50.58 50.87 51.15 52.04 52.19 52.41 52.60 52.51 49.84 41.38 41.25 41.54 38.46 35.90 36.03 35.84 36.57 39.28 39.84 43.38 44.80 45.75 45.53 44.45 43.03 43.84 44.87 44.56 45.04 44.81 41.96 40.05 37.20 36.28 34.95 33.05 32.01 35.46 36.21 33.44 38.76 39.82 38.85 40.31 40.31
49.48 49.83 50.09 50.40 50.53 51.41 51.67 51.92 52.10 52.28 50.36 43.70 41.64 41.23 36.28 32.14 34.54 34.08 36.38 36.92 36.81 38.41 38.44 42.16 42.67 42.56 47.00 48.69 48.82 47.97 44.95 43.93 43.70 43.35 41.34 36.52 34.63 33.84 30.04 32.60 26.80 37.78 40.73 41.90 41.12 42.46 42.91
49.12 49.39 49.64 49.95 50.14 50.95 51.35 50.89 51.29 51.81 51.47 44.55 43.93 41.97 38.70 33.20 34.68 36.24 36.85 37.51 36.95 38.15 38.84 40.66 41.59 44.18 47.50 45.97 41.44 38.96 39.04 39.29 41.34 43.50 40.11 41.17 36.38 30.05 30.51 29.29 36.65 39.64 40.84 39.27 38.78 38.69 43.24
49.01 49.09 49.17 49.50 49.82 50.36 50.50 50.84 50.47 51.02 51.16 46.51 43.67 45.27 42.00 35.68 33.76 36.33 34.49 35.46 33.36 33.56 34.07 36.65 43.24 45.86 45.12 42.13 39.97 34.16 32.26 35.47 34.64 36.39 44.22 39.03 40.20 37.04 28.67 27.21 26.45 36.77 41.95 45.97 43.10 36.70 44.09
48.62 48.71 49.03 49.29 49.41 49.80 49.58 49.82 50.18 50.87 50.73 47.35 43.34 45.97 41.20 36.16 39.13 36.93 34.36 33.83 37.87 36.33 35.41 36.57 40.01 39.74 42.94 39.62 36.50 34.72 33.65 38.00 33.61 33.32 32.10 36.37 33.52 33.16 34.14 32.22 33.71 41.14 43.24 42.84 34.65 36.98 43.60
48.47 48.62 48.79 49.00 49.15 49.21 49.26 49.51 50.05 50.13 50.52 47.70 43.06 46.48 42.25 37.41 38.69 40.91 40.57 37.35 36.55 36.15 32.47 37.25 35.52 37.11 37.26 36.23 36.61 37.07 36.15 37.54 36.29 38.52 37.04 32.39 29.09 31.77 33.66 28.77 29.57 43.59 41.91 40.68 41.72 42.49 44.76
48.45 48.64 48.72 48.79 49.01 48.98 49.22 49.54 49.74 49.96 50.39 49.49 41.51 45.58 46.34 40.35 39.02 43.82 43.26 44.01 42.85 41.45 37.83 37.39 36.56 36.61 38.40 34.03 34.46 34.94 35.95 38.80 36.28 32.31 41.15 36.08 38.44 32.64 35.54 37.12 42.97 42.53 41.10 44.32 44.52 44.03 46.23
MSLP
1025.07 1025.00 1024.92 1024.85 1024.84 1024.75 1024.65 1024.57 1024.49 1024.41 1024.22 1023.98 1023.74 1023.47 1023.16 1022.77 1022.36 1021.95 1021.54 1021.10 1020.64 1020.18 1019.80 1019.39 1019.00 1018.62 1017.80 1017.35 1015.92 1014.95 1014.98 1014.89 1014.69 1014.75 1014.88 1014.88 1014.89 1014.83 1014.84 1014.71 1014.45 1014.58 1014.76 1014.88 1015.13 1015.29 1015.35
1024.88 1024.71 1024.81 1024.72 1024.66 1024.57 1024.49 1024.39 1024.39 1024.30 1024.15 1023.92 1023.67 1023.42 1023.07 1022.73 1022.32 1021.84 1021.32 1020.83 1020.35 1019.91 1019.53 1019.23 1018.91 1018.64 1018.34 1016.87 1014.57 1014.61 1014.68 1014.73 1014.72 1014.73 1014.83 1014.70 1015.04 1014.88 1014.79 1014.70 1014.75 1014.77 1014.87 1014.99 1015.18 1015.39 1015.48
1025.14 1024.79 1024.80 1024.71 1024.55 1024.45 1024.32 1024.31 1024.22 1024.13 1024.01 1023.87 1023.59 1023.31 1023.00 1022.58 1022.10 1021.59 1021.02 1020.45 1019.99 1019.56 1019.20 1018.95 1018.77 1018.56 1017.90 1015.96 1014.43 1014.48 1014.38 1014.55 1014.61 1014.70 1014.84 1014.87 1014.88 1015.15 1015.04 1014.93 1014.79 1014.93 1015.31 1015.40 1015.31 1015.49 1015.81
1025.59 1025.38 1025.18 1024.90 1024.64 1024.31 1024.16 1024.15 1024.08 1023.97 1023.90 1023.73 1023.49 1023.18 1022.84 1022.42 1021.84 1021.24 1020.61 1020.00 1019.46 1019.06 1018.78 1018.58 1018.54 1018.35 1016.96 1014.67 1014.50 1014.38 1014.44 1014.53 1014.47 1014.54 1014.71 1014.80 1014.89 1015.16 1015.21 1015.28 1015.24 1015.47 1015.80 1015.96 1015.13 1015.54 1015.96
1025.88 1025.68 1025.52 1025.26 1024.96 1024.62 1024.38 1024.11 1023.91 1023.87 1023.80 1023.60 1023.31 1023.03 1022.70 1022.19 1021.58 1020.84 1020.14 1019.31 1018.63 1018.36 1018.24 1018.30 1018.45 1018.03 1016.33 1014.59 1014.50 1014.27 1014.43 1014.51 1014.57 1014.52 1014.63 1014.76 1015.04 1015.35 1015.44 1015.83 1016.11 1016.02 1016.13 1015.96 1015.74 1015.47 1016.02
1026.24 1025.96 1025.81 1025.59 1025.28 1024.99 1024.69 1024.35 1024.07 1023.91 1023.76 1023.52 1023.27 1022.93 1022.57 1022.03 1021.36 1020.59 1019.68 1018.32 1017.59 1017.97 1017.72 1017.87 1017.73 1017.82 1015.81 1014.88 1014.45 1014.32 1014.28 1014.48 1014.70 1014.79 1015.03 1015.23 1015.56 1015.89 1016.11 1016.42 1016.60 1016.20 1016.05 1015.55 1015.63 1015.53 1015.81
1026.44 1026.25 1025.99 1025.79 1025.54 1025.28 1024.97 1024.68 1024.38 1024.07 1023.80 1023.55 1023.27 1022.94 1022.49 1021.91 1021.28 1020.46 1019.86 1018.56 1018.34 1018.44 1017.93 1017.33 1016.83 1016.12 1015.02 1014.70 1014.49 1014.53 1014.40 1014.70 1014.92 1015.25 1015.64 1015.56 1016.05 1016.43 1015.97 1015.86 1015.68 1015.55 1015.68 1015.72 1015.24 1015.17 1015.69
1026.61 1026.39 1026.13 1025.98 1025.71 1025.44 1025.16 1024.89 1024.56 1024.22 1023.95 1023.60 1023.27 1022.92 1022.48 1021.87 1021.21 1020.53 1020.18 1020.14 1020.40 1020.58 1019.07 1016.73 1015.96 1015.67 1015.01 1014.67 1014.73 1014.62 1014.50 1015.10 1015.35 1015.74 1015.86 1016.24 1016.09 1015.73 1015.44 1015.39 1015.36 1015.41 1015.58 1015.56 1015.33 1015.36 1015.66
1026.70 1026.52 1026.28 1026.08 1025.85 1025.60 1025.35 1025.10 1024.77 1024.46 1024.11 1023.77 1023.29 1022.90 1022.47 1021.83 1021.16 1020.48 1020.67 1020.46 1020.03 1019.95 1019.64 1016.34 1015.09 1014.59 1014.45 1014.76 1014.84 1014.48 1014.61 1014.98 1015.40 1015.85 1015.93 1016.23 1015.61 1015.15 1015.23 1015.27 1015.39 1015.61 1015.81 1015.76 1015.93 1015.64 1015.33
1026.68 1026.57 1026.41 1026.22 1026.03 1025.80 1025.54 1025.23 1024.91 1024.58 1024.25 1023.84 1023.38 1022.92 1022.52 1021.88 1021.30 1021.07 1020.73 1020.38 1019.98 1019.91 1019.42 1016.23 1014.66 1014.13 1014.11 1014.56 1014.94 1014.41 1014.35 1014.79 1015.12 1015.57 1015.69 1015.71 1015.21 1015.12 1015.25 1015.43 1015.52 1015.79 1015.83 1015.99 1016.22 1016.66 1016.43
1026.69 1026.50 1026.40 1026.20 1026.12 1025.95 1025.72 1025.40 1025.08 1024.74 1024.37 1023.96 1023.51 1023.10 1022.66 1022.62 1022.57 1021.80 1021.15 1020.29 1019.98 1020.04 1018.93 1015.69 1014.70 1014.12 1014.21 1014.96 1014.93 1014.88 1014.78 1014.80 1015.27 1015.46 1015.80 1015.57 1015.39 1015.34 1015.36 1015.44 1015.40 1015.83 1016.03 1016.34 1016.59 1016.96 1017.07
1026.64 1026.46 1026.33 1026.22 1026.17 1026.04 1025.80 1025.53 1025.22 1024.86 1024.53 1024.15 1023.69 1023.35 1022.88 1022.28 1022.50 1021.55 1020.71 1020.27 1020.19 1020.00 1017.27 1015.43 1014.93 1014.67 1014.91 1015.09 1015.24 1015.32 1015.30 1015.29 1015.39 1015.77 1015.72 1015.65 1015.33 1015.34 1015.28 1015.52 1015.71 1016.04 1016.41 1016.80 1017.11 1017.61 1017.69
1026.46 1026.36 1026.27 1026.20 1026.14 1026.01 1025.80 1025.58 1025.27 1024.91 1024.56 1024.22 1023.84 1023.44 1023.19 1022.43 1021.96 1021.17 1020.86 1020.75 1020.59 1019.14 1015.76 1015.48 1015.01 1015.06 1015.27 1015.56 1015.66 1015.74 1015.92 1016.12 1016.13 1016.60 1016.41 1015.87 1015.50 1015.35 1015.37 1015.96 1016.26 1016.52 1017.32 1017.84 1018.24 1018.25 1016.84
1026.37 1026.23 1026.13 1026.06 1026.01 1025.90 1025.76 1025.52 1025.30 1025.01 1024.58 1024.16 1023.71 1023.32 1022.79 1022.31 1021.67 1021.63 1021.60 1021.56 1020.23 1017.30 1015.67 1014.82 1014.57 1014.92 1015.48 1015.29 1015.52 1015.78 1016.19 1016.46 1016.33 1016.47 1016.47 1016.24 1015.89 1015.61 1015.50 1015.83 1016.22 1016.86 1017.40 1017.81 1017.77 1017.72 1016.33
1026.19 1026.04 1025.99 1025.92 1025.81 1025.70 1025.62 1025.48 1025.26 1024.96 1024.63 1024.20 1023.51 1022.94 1022.54 1021.85 1021.59 1021.86 1022.31 1021.73 1018.95 1016.85 1015.32 1014.76 1014.75 1015.04 1015.12 1014.91 1015.24 1015.73 1016.00 1016.04 1015.73 1015.95 1016.20 1015.77 1015.80 1015.64 1015.77 1015.93 1016.22 1016.80 1017.25 1017.16 1017.49 1017.20 1016.72
1025.94 1025.84 1025.69 1025.64 1025.57 1025.55 1025.44 1025.33 1025.17 1024.93 1024.61 1024.27 1023.98 1023.14 1022.32 1021.45 1021.27 1021.75 1022.44 1020.62 1018.30 1016.22 1015.16 1014.76 1014.72 1014.65 1014.94 1014.91 1015.29 1015.66 1015.73 1014.58 1014.97 1014.72 1014.89 1015.20 1015.68 1016.16 1016.33 1016.34 1016.39 1016.68 1017.20 1017.42 1017.85 1017.84 1016.87
1025.68 1025.53 1025.42 1025.34 1025.28 1025.30 1025.32 1025.24 1025.11 1024.92 1024.62 1024.36 1024.15 1023.48 1022.19 1021.77 1021.52 1021.66 1021.19 1020.14 1018.19 1016.42 1016.14 1015.50 1014.90 1014.76 1014.79 1014.83 1014.98 1015.34 1015.00 1014.10 1013.76 1013.88 1014.52 1015.09 1015.66 1016.97 1016.88 1016.69 1016.43 1017.10 1017.19 1017.38 1017.61 1017.46 1016.56
1025.41 1025.33 1025.29 1025.10 1025.03 1025.10 1025.11 1025.07 1025.04 1024.89 1024.65 1024.38 1024.53 1023.93 1022.57 1021.61 1022.09 1021.23 1020.27 1019.34 1018.52 1017.06 1016.60 1016.18 1015.28 1015.08 1014.95 1014.77 1014.95 1014.92 1014.42 1013.82 1013.35 1013.36 1014.45 1014.80 1015.68 1016.64 1016.62 1015.70 1015.72 1016.01 1016.29 1016.75 1017.49 1017.01 1016.15
1025.12 1025.01 1025.02 1024.93 1024.87 1024.84 1024.87 1024.89 1024.87 1024.85 1024.91 1025.15 1024.92 1023.96 1022.84 1022.34 1021.88 1021.25 1020.51 1019.48 1018.74 1018.28 1017.24 1016.72 1015.87 1015.39 1015.03 1015.16 1015.31 1014.57 1013.91 1013.59 1013.43 1013.70 1013.96 1014.66 1015.64 1016.61 1016.20 1016.21 1015.86 1015.80 1015.68 1015.60 1016.04 1016.26 1015.48
1024.61 1024.73 1024.66 1024.66 1024.65 1024.62 1024.61 1024.60 1024.75 1024.76 1024.83 1025.28 1025.45 1024.37 1023.50 1023.27 1022.69 1022.02 1020.92 1019.65 1018.68 1017.93 1017.46 1017.06 1016.68 1016.30 1016.15 1015.57 1015.22 1014.86 1014.43 1014.12 1014.00 1013.88 1014.31 1014.61 1015.57 1015.84 1015.56 1015.09 1015.07 1015.38 1015.04 1015.08 1015.42 1015.39 1014.42
1024.27 1024.30 1024.25 1024.15 1024.12 1024.35 1024.32 1024.42 1024.57 1024.64 1024.71 1025.41 1025.60 1024.93 1023.76 1023.60 1023.17 1022.55 1021.95 1020.27 1019.21 1018.47 1017.66 1017.08 1016.48 1016.51 1016.70 1016.25 1015.44 1014.87 1014.68 1014.52 1014.52 1014.28 1014.65 1015.33 1015.82 1015.64 1015.10 1014.61 1014.48 1014.30 1013.98 1013.89 1014.01 1013.58 1012.73
1023.85 1023.78 1023.71 1023.72 1023.77 1023.84 1023.98 1024.10 1024.24 1024.49 1024.61 1025.47 1025.60 1025.20 1024.67 1024.23 1023.59 1022.83 1022.08 1020.91 1020.21 1019.46 1018.85 1017.53 1016.86 1016.91 1016.63 1015.91 1015.89 1015.35 1014.83 1014.59 1014.48 1014.93 1015.11 1015.28 1015.45 1015.47 1014.88 1014.38 1014.02 1013.34 1012.49 1012.05 1011.84 1011.57 1010.88
1023.12 1023.17 1023.20 1023.17 1023.15 1023.24 1023.43 1023.51 1023.74 1024.06 1024.53 1025.02 1024.98 1024.86 1024.96 1024.33 1024.08 1023.90 1022.69 1021.77 1020.67 1020.14 1019.09 1018.43 1018.14 1017.49 1016.63 1016.08 1015.46 1014.79 1014.27 1014.20 1014.22 1014.67 1015.42 1015.74 1015.71 1015.75 1014.76 1014.50 1013.89 1012.02 1009.10 1009.66 1009.76 1009.29 1009.02
1022.51 1022.44 1022.46 1022.51 1022.68 1022.69 1022.89 1023.06 1023.10 1023.31 1023.93 1024.58 1024.65 1024.76 1024.87 1023.97 1023.94 1023.54 1023.02 1022.80 1022.21 1021.60 1020.74 1019.85 1019.35 1018.48 1017.32 1016.76 1015.78 1014.33 1014.12 1013.87 1013.61 1013.43 1014.02 1014.91 1015.53 1015.57 1015.35 1014.45 1012.63 1007.74 1007.05 1006.84 1006.83 1006.53 1006.34
1021.69 1021.73 1021.69 1021.74 1021.97 1022.00 1022.09 1022.31 1022.49 1022.63 1023.00 1023.96 1024.08 1024.63 1024.67 1023.77 1023.62 1023.22 1023.15 1022.68 1022.65 1022.33 1021.57 1020.45 1019.80 1019.19 1018.64 1018.06 1017.29 1015.49 1014.36 1013.82 1012.40 1012.54 1013.02 1013.55 1014.53 1015.35 1014.97 1013.72 1010.10 1007.42 1006.72 1006.30 1006.15 1005.36 1005.14
1020.77 1020.90 1020.88 1020.96 1021.08 1021.27 1021.39 1021.53 1021.79 1021.97 1022.17 1023.14 1023.35 1023.60 1024.03 1023.58 1022.68 1023.01 1022.79 1022.56 1022.44 1022.35 1021.67 1020.72 1019.87 1018.61 1018.63 1018.60 1017.66 1015.68 1014.19 1013.33 1012.40 1011.44 1011.59 1012.86 1013.19 1014.14 1014.47 1013.18 1010.20 1006.53 1004.66 1004.35 1005.02 1003.88 1004.10
1020.03 1020.07 1020.06 1020.16 1020.24 1020.43 1020.61 1020.80 1020.94 1021.14 1021.41 1022.13 1022.45 1022.79 1023.35 1022.94 1022.42 1022.73 1022.18 1021.82 1021.74 1021.79 1021.36 1020.93 1020.24 1019.55 1018.56 1017.67 1016.82 1015.56 1014.27 1013.60 1012.28 1011.56 1011.25 1011.64 1012.26 1012.17 1012.55 1011.30 1007.90 1006.00 1004.76 1004.74 1004.82 1004.25 1002.93
1019.28 1019.26 1019.21 1019.32 1019.45 1019.54 1019.81 1019.97 1020.11 1020.38 1020.63 1021.26 1021.42 1021.85 1022.58 1022.33 1021.63 1021.77 1021.49 1021.39 1021.06 1020.98 1020.88 1020.52 1020.48 1019.20 1019.28 1018.13 1017.17 1015.86 1014.92 1013.74 1012.70 1011.82 1010.96 1010.75 1011.13 1010.75 1011.16 1010.28 1007.51 1005.07 1004.89 1004.44 1004.15 1002.97 1002.96
1018.51 1018.42 1018.34 1018.41 1018.49 1018.81 1018.97 1019.02 1019.15 1019.31 1019.55 1020.21 1020.94 1020.96 1021.41 1022.04 1020.68 1020.41 1020.37 1020.06 1019.72 1019.63 1020.11 1019.96 1019.54 1019.02 1018.90 1019.42 1018.06 1017.47 1015.74 1013.93 1012.16 1011.36 1010.75 1009.98 1008.66 1009.02 1008.26 1005.72 1005.57 1004.17 1004.46 1003.95 1003.78 1003.87 1003.20
Wind_Speed
6 7 5 5 6 6 6 6 7 8 8 10 11 12 13 14 14 15 15 16 18 18 17 16 16 14 7 2 6 5 5 7 2 3 3 6 5 3 0 4 2 2 2 3 5 2 2
14 8 6 7 8 7 7 7 6 7 8 8 9 11 12 13 15 16 16 16 18 18 17 16 15 12 2 3 4 8 5 3 2 3 6 4 2 5 3 1 2 2 1 3 4 4 2
16 14 7 9 9 9 8 8 7 7 8 9 10 11 12 14 15 16 17 18 18 17 17 17 10 3 3 11 4 6 5 3 0 1 3 3 4 4 5 4 1 2 2 5 4 4 4
16 16 15 14 12 11 7 8 9 8 8 9 10 11 13 15 16 18 20 20 19 18 17 13 3 1 6 4 0 3 3 3 4 3 0 2 3 2 2 2 3 2 1 1 5 7 4
15 16 16 15 15 14 12 11 7 7 7 8 10 10 13 16 18 20 21 24 22 16 10 6 1 2 8 1 2 6 5 2 4 2 3 2 1 3 3 3 5 2 4 5 2 8 4
14 14 14 15 15 14 14 14 11 9 9 9 10 11 13 16 18 21 24 25 11 6 3 4 5 3 5 2 2 1 0 1 1 3 3 1 1 2 4 4 3 3 3 3 5 7 7
12 12 13 14 14 15 15 15 14 12 10 9 11 12 13 16 19 21 14 7 7 4 4 7 5 4 1 2 2 2 3 2 1 1 2 4 3 3 8 7 4 2 2 4 1 2 4
11 11 12 12 13 14 14 14 14 14 15 13 10 12 13 16 19 22 3 5 3 5 9 9 15 10 5 2 0 5 7 4 4 5 1 4 6 8 3 1 2 3 4 6 2 4 3
8 9 11 12 12 13 14 13 13 13 14 14 14 12 14 18 20 7 3 4 5 4 3 9 6 5 5 6 4 6 9 5 4 3 5 7 5 5 1 1 2 3 3 3 3 6 5
9 10 10 9 11 13 14 14 13 13 13 13 15 12 13 20 4 7 2 7 7 2 4 6 2 1 5 5 5 5 7 5 3 6 6 6 4 4 3 2 3 3 1 2 3 5 3
12 9 9 9 10 11 12 13 13 13 13 13 14 14 11 5 5 5 6 7 7 4 5 3 2 4 3 8 2 5 4 4 3 4 4 8 4 2 2 4 2 6 0 2 2 2 4
12 11 9 9 10 10 10 12 13 13 13 13 13 13 11 3 2 5 7 7 3 5 7 2 2 2 5 2 1 1 4 4 1 3 3 8 2 3 7 2 2 2 2 3 2 2 2
11 9 8 8 9 9 10 11 12 14 14 13 13 13 7 5 4 7 7 4 5 4 4 3 3 5 3 6 4 4 4 3 5 4 5 3 5 2 3 3 2 2 6 4 3 2 8
13 10 8 8 8 8 8 10 11 14 15 13 15 11 5 5 5 6 5 5 3 4 6 3 4 6 6 6 6 8 4 4 7 2 0 6 5 8 4 6 6 6 8 6 5 3 5
13 13 10 9 9 10 8 9 10 12 12 14 15 3 4 4 8 1 5 2 9 7 4 5 3 4 5 4 6 6 8 8 8 13 8 3 4 2 4 3 3 3 4 6 1 3 2
14 13 13 11 9 9 9 9 10 11 11 13 4 4 6 6 5 3 4 6 6 4 4 1 6 7 6 6 6 6 6 6 6 12 7 4 1 1 2 1 1 3 2 2 2 4 5
14 15 15 13 9 6 8 8 9 10 10 10 3 3 3 6 1 3 5 8 6 12 5 4 2 2 3 5 8 5 6 7 8 3 9 4 5 1 3 6 9 2 3 4 3 6 6
14 14 14 15 12 8 7 8 7 8 10 4 2 3 4 3 4 3 7 4 6 14 8 6 3 4 3 2 5 7 9 3 1 6 7 7 5 5 12 5 8 7 9 7 6 5 4
14 14 13 15 13 9 8 7 7 6 3 2 2 4 3 3 6 9 8 11 16 18 4 5 5 5 3 3 3 6 7 1 3 4 7 5 2 1 9 6 3 6 6 8 2 3 6
15 14 13 13 13 9 9 9 6 6 4 3 2 4 2 3 1 3 6 16 20 11 23 18 13 9 7 6 4 6 4 2 4 3 4 5 4 8 9 6 4 4 7 8 9 5 8
17 15 15 15 13 11 8 9 8 7 5 4 1 5 2 1 3 7 5 8 10 15 19 7 4 15 11 6 8 6 7 3 3 5 2 6 6 5 8 8 5 8 8 11 16 19 12
15 17 16 16 13 12 10 9 8 9 5 2 2 1 5 3 6 8 6 11 19 20 12 11 19 17 11 16 14 6 5 4 7 1 6 4 5 6 13 11 12 18 17 15 18 20 22
17 17 16 16 16 14 12 11 10 9 5 2 2 3 2 1 2 5 6 10 7 9 15 20 19 16 12 14 8 11 15 14 8 7 7 2 4 3 12 4 8 15 22 21 12 16 16
20 19 17 17 17 15 14 14 13 11 11 4 3 2 2 7 8 10 9 14 16 19 14 13 16 15 11 20 24 15 13 10 12 12 10 7 5 4 4 3 12 10 5 11 20 21 26
20 21 19 18 18 17 15 16 16 15 13 4 3 3 3 5 8 11 9 6 11 14 16 17 21 15 14 13 10 11 13 15 21 16 9 12 7 2 7 8 19 28 12 4 7 11 15
21 20 20 20 20 18 16 15 17 15 15 4 4 4 4 5 9 12 10 9 11 10 14 17 15 14 11 6 7 9 12 8 8 5 16 10 9 11 3 8 13 3 10 19 9 23 11
20 20 21 21 21 19 17 17 18 17 16 7 4 7 3 6 5 4 7 7 5 4 4 6 4 6 9 8 9 10 12 4 16 10 5 12 8 20 15 15 12 8 8 2 8 8 3
20 20 21 20 21 20 19 19 19 19 18 8 4 8 6 5 10 10 12 14 10 7 10 6 9 4 6 9 8 6 7 9 12 17 12 9 8 12 11 10 28 5 2 20 6 5 2
20 20 20 21 21 20 20 20 20 21 19 14 5 5 6 6 7 5 15 20 21 21 5 5 8 5 5 3 5 7 6 6 9 19 10 24 15 5 11 13 9 6 4 6 3 6 16
Wind_Direction
291 288 300 308 307 309 326 334 345 350 350 350 346 344 341 338 336 334 328 323 321 318 316 318 324 332 348 357 251 196 214 245 293 309 271 292 3 314 73 271 189 235 218 80 130 95 288
6 258 288 302 302 302 299 307 326 332 333 336 335 335 335 333 328 324 320 316 314 311 309 313 322 323 328 273 198 159 204 218 326 354 327 38 337 278 291 349 99 302 151 194 175 208 249
26 24 356 336 308 304 299 304 316 317 325 326 327 328 329 327 323 318 314 311 307 302 303 306 314 298 294 237 134 163 165 152 323 20 345 358 346 28 327 321 5 319 326 307 219 204 246
26 23 23 17 12 356 319 314 301 314 319 318 319 322 326 323 320 316 312 310 304 298 297 297 282 338 248 266 307 157 216 200 218 217 193 308 350 275 228 325 324 233 60 188 263 167 216
23 24 21 18 18 15 3 5 334 331 319 312 315 319 320 318 316 314 314 308 298 289 279 265 265 161 270 298 154 224 197 225 176 199 218 249 307 217 360 77 2 306 235 204 276 188 141
13 18 15 17 16 14 10 9 355 346 333 330 324 323 320 316 316 316 318 305 281 332 225 226 255 16 280 233 131 29 289 66 275 307 320 180 107 61 360 81 224 277 268 288 197 229 185
1 5 10 12 10 11 9 7 4 354 345 344 332 325 321 317 318 317 339 351 14 11 2 201 195 226 188 151 110 232 196 159 280 332 227 235 72 245 266 196 220 299 329 306 242 201 179
356 1 2 2 4 5 6 4 2 1 355 341 334 328 323 318 318 318 333 51 90 207 306 260 254 249 260 158 333 269 138 156 159 217 235 344 252 237 168 85 44 2 321 302 335 204 215
342 359 0 359 359 360 3 0 358 354 353 348 339 331 326 318 315 328 29 48 306 343 262 284 217 215 186 122 238 242 139 181 196 241 255 179 241 172 183 316 360 330 252 264 238 322 275
346 349 351 355 359 356 356 356 355 351 346 346 349 334 330 327 14 328 50 338 331 35 12 278 172 301 97 101 271 211 194 173 231 208 241 231 210 162 179 240 166 289 293 343 328 41 256
337 348 342 1 356 352 350 349 349 348 347 342 345 344 328 24 292 336 307 330 322 63 346 164 141 283 86 144 207 0 333 64 230 237 51 251 168 176 226 224 162 219 270 272 286 308 358
332 332 335 354 345 343 343 344 346 347 346 343 334 339 334 356 208 263 329 316 44 47 258 138 119 156 110 218 60 66 22 27 240 278 224 225 186 185 195 105 77 161 335 1 21 89 321
322 323 331 334 332 330 335 341 343 345 344 341 330 322 312 310 263 338 336 12 60 165 302 176 182 156 181 199 199 166 161 200 189 119 257 316 220 166 131 124 17 85 59 337 348 349 229
322 318 305 313 318 321 327 332 339 341 341 337 330 319 282 252 297 329 13 53 176 228 251 160 130 151 181 159 237 184 170 213 256 225 274 187 303 158 197 176 184 179 156 166 231 225 278
323 314 306 300 308 314 323 328 329 336 338 338 322 283 275 267 235 123 66 148 204 215 295 150 120 177 221 218 176 147 206 208 218 184 187 208 251 63 63 22 121 212 188 196 162 301 25
328 324 306 294 287 293 310 319 327 333 337 340 316 303 263 246 248 118 90 238 243 294 3 143 193 175 195 206 168 159 200 221 224 193 181 246 75 41 342 12 245 152 213 82 356 232 253
325 327 322 312 301 291 297 303 320 329 333 343 313 307 278 329 199 158 209 229 262 278 316 347 309 278 302 185 176 195 222 276 195 203 175 196 133 269 63 208 189 115 266 215 162 166 189
311 314 317 316 306 305 289 288 305 322 335 351 302 272 313 343 193 232 227 224 270 298 318 285 272 211 229 299 216 215 209 232 192 146 163 209 155 188 214 245 195 174 188 164 133 255 233
299 306 308 308 307 306 294 282 292 308 24 1 279 242 332 80 231 221 254 261 244 271 266 292 269 209 222 279 339 216 235 288 137 174 168 179 222 356 323 347 344 206 211 207 154 88 224
299 298 300 298 299 296 292 288 273 283 288 87 334 312 295 46 21 342 277 253 251 252 244 253 263 306 311 276 205 276 6 329 321 134 107 93 194 179 193 204 142 199 219 208 191 197 225
293 290 295 293 292 293 281 281 275 260 251 96 200 260 287 274 251 250 280 306 288 260 246 280 289 233 241 280 272 260 268 193 266 219 140 153 229 224 246 254 227 223 217 209 210 224 217
288 292 288 288 282 282 281 269 262 250 248 131 221 219 346 305 318 296 254 253 262 273 274 273 254 256 272 240 241 286 288 246 208 73 175 198 232 215 260 271 281 274 250 229 216 222 239
280 276 274 277 280 276 272 267 254 230 196 178 226 284 115 255 339 327 274 291 275 286 260 267 280 291 281 267 268 255 241 252 228 178 202 235 187 168 255 268 295 277 242 239 215 215 208
284 282 281 277 273 274 268 266 261 241 202 170 225 126 193 260 225 248 251 272 291 300 305 309 324 316 328 332 321 293 276 266 260 252 180 187 171 175 223 129 237 244 247 212 217 226 221
274 277 277 274 267 263 264 265 264 252 233 184 197 166 222 254 248 260 273 283 322 320 296 282 282 282 292 313 307 275 264 278 257 248 214 193 175 230 203 215 278 284 279 206 181 257 228
276 280 277 271 265 259 259 257 260 258 247 209 221 170 217 258 229 244 257 257 274 284 287 276 263 275 266 251 232 233 230 235 240 226 215 182 197 204 150 211 230 325 232 234 215 267 229
278 275 272 269 265 264 265 262 254 250 244 218 214 187 210 253 214 224 221 229 196 203 256 290 309 333 297 240 241 248 248 292 241 223 184 203 197 218 222 238 270 233 294 33 134 240 308
277 274 270 267 263 264 264 264 257 249 242 222 231 191 202 242 250 229 238 245 258 246 250 249 302 222 273 255 233 223 231 224 233 247 244 184 168 214 214 227 252 153 333 227 216 281 267
275 273 269 266 264 259 261 259 255 249 243 224 236 192 193 225 256 242 244 240 231 230 236 210 243 234 184 283 358 328 323 269 241 245 226 234 218 202 201 235 263 266 203 276 313 267 283